Latest Weather Observations for Kuitpo

IDS60801

Issued at 6:05 pm CST Wednesday 30 July 2014 (issued every 30 minutes, with the page automatically refreshed every 10 minutes)

About weather observations | Map of weather stations | Latest weather observations for SA | Other Formats
Station Details ID: 023887 Name: KUITPO FOREST RESERVE Lat: -35.17 Lon: 138.68 Height: 365.0 m
Data from the previous 72 hours. | See also: Recent months at Kuitpo
Date/Time
CST
Temp
°C
App
Temp
°C
Dew
Point
Rel
Hum
%
Delta-T
°C
Wind Press
QNH
hPa
Press
MSL
hPa
Rain
since 9 am
mm
Dir
 
Spd
km/h
Gust
km/h
Spd
kts
Gust
kts
30/06:01pm 11.8 7.0 11.8 100 0.0 NW 28 48 15 26 1012.0 - 0.0
30/06:00pm 11.8 7.4 11.8 100 0.0 NW 26 48 14 26 1012.0 1012.3 0.0
30/05:30pm 12.0 7.3 12.0 100 0.0 NW 28 46 15 25 1012.0 1012.3 0.0
30/05:00pm 12.2 7.2 12.2 100 0.0 NW 30 50 16 27 1011.9 - 0.0
30/04:30pm 12.2 7.2 12.2 100 0.0 NW 30 50 16 27 1012.0 1012.3 0.0
30/04:00pm 12.2 7.2 12.2 100 0.0 NW 30 57 16 31 1012.2 - 0.0
30/03:30pm 12.5 7.6 12.5 100 0.0 WNW 30 50 16 27 1012.5 1012.8 0.0
30/03:21pm 12.5 8.0 12.5 100 0.0 WNW 28 46 15 25 1012.5 - 0.0
30/03:00pm 12.4 7.1 12.4 100 0.0 WNW 32 44 17 24 1012.6 1012.9 0.0
30/02:30pm 12.6 7.3 12.6 100 0.0 WNW 32 54 17 29 1012.9 1013.2 0.0
30/02:00pm 12.4 7.8 12.4 100 0.0 WNW 28 50 15 27 1013.2 - 0.0
30/01:31pm 12.7 7.8 12.7 100 0.0 WNW 30 48 16 26 1013.5 - 0.0
30/01:30pm 12.7 7.5 12.7 100 0.0 WNW 32 48 17 26 1013.5 1013.8 0.0
30/01:00pm 12.2 7.2 12.2 100 0.0 WNW 30 52 16 28 1014.1 - 0.0
30/12:30pm 11.9 6.2 11.9 100 0.0 WNW 33 54 18 29 1014.4 1014.7 0.0
30/12:00pm 12.1 6.7 12.1 100 0.0 WNW 32 54 17 29 1014.9 1015.2 0.0
30/11:32am 12.3 7.7 12.3 100 0.0 WNW 28 46 15 25 1015.3 - 0.0
30/11:30am 12.3 7.7 12.3 100 0.0 WNW 28 43 15 23 1015.4 1015.7 0.0
30/11:03am 12.2 7.6 12.2 100 0.0 NW 28 46 15 25 1015.6 - 0.0
30/11:00am 11.9 6.4 11.9 100 0.0 NW 32 46 17 25 1015.6 - 0.0
30/10:30am 11.5 5.9 11.5 100 0.0 WNW 32 50 17 27 1015.9 1016.3 0.0
30/10:01am 11.3 6.4 11.3 100 0.0 WNW 28 46 15 25 1015.8 - 0.0
30/10:00am 11.3 6.0 11.3 100 0.0 WNW 30 46 16 25 1015.8 - 0.0
30/09:30am 11.3 6.0 11.3 100 0.0 WNW 30 54 16 29 1016.0 1016.4 0.0
30/09:00am 11.1 5.2 11.1 100 0.0 WNW 33 52 18 28 1015.8 1016.2 2.4
30/08:30am 11.0 6.0 11.0 100 0.0 WNW 28 46 15 25 1015.6 1015.9 2.4
30/08:00am 11.0 5.6 11.0 100 0.0 WNW 30 52 16 28 1015.7 - 2.4
30/07:30am 10.9 5.1 10.9 100 0.0 WNW 32 50 17 27 1015.8 1016.2 2.4
30/07:00am 10.7 5.6 10.7 100 0.0 NW 28 50 15 27 1015.6 - 2.4
30/06:41am 10.7 5.6 10.7 100 0.0 WNW 28 46 15 25 1015.4 - 2.4
30/06:30am 10.7 6.0 10.7 100 0.0 WNW 26 39 14 21 1015.4 1015.7 2.4
30/06:11am 10.8 5.8 10.8 100 0.0 NW 28 46 15 25 1015.2 - 2.4
30/06:00am 10.8 6.9 10.8 100 0.0 WNW 22 37 12 20 1015.3 1015.6 2.4
30/05:30am 10.8 6.1 10.8 100 0.0 NW 26 44 14 24 1015.0 1015.3 2.4
30/05:00am 10.9 7.4 10.9 100 0.0 WNW 20 30 11 16 1015.1 - 2.4
30/04:30am 10.9 7.0 10.9 100 0.0 WNW 22 33 12 18 1015.0 1015.3 2.4
30/04:00am 11.0 7.2 11.0 100 0.0 WNW 22 35 12 19 1015.2 - 2.4
30/03:30am 11.1 5.8 11.1 100 0.0 WNW 30 48 16 26 1015.4 1015.7 2.4
30/03:01am 11.1 6.1 11.1 100 0.0 WNW 28 46 15 25 1015.6 - 2.4
30/03:00am 11.1 5.8 11.1 100 0.0 WNW 30 46 16 25 1015.5 1015.8 2.4
30/02:51am 11.1 6.1 11.1 100 0.0 NW 28 46 15 25 1015.5 - 2.4
30/02:30am 11.2 6.3 11.2 100 0.0 WNW 28 44 15 24 1015.7 1016.1 2.4
30/02:00am 11.3 7.2 11.3 100 0.0 NW 24 43 13 23 1015.9 - 2.4
30/01:30am 11.3 6.8 11.3 100 0.0 NW 26 44 14 24 1016.2 1016.5 2.4
30/01:05am 11.1 6.1 11.1 100 0.0 WNW 28 46 15 25 1016.0 - 2.4
30/01:00am 11.2 7.0 11.2 100 0.0 WNW 24 43 13 23 1016.2 - 2.4
30/12:30am 11.4 6.5 11.4 100 0.0 WNW 28 48 15 26 1016.3 1016.6 2.4
30/12:25am 11.4 6.5 11.4 100 0.0 NW 28 48 15 26 1016.0 - 2.4
30/12:00am 11.5 5.9 11.5 100 0.0 WNW 32 44 17 24 1016.2 1016.5 2.4
 
Date/Time
CST
Temp
°C
App
Temp
°C
Dew
Point
Rel
Hum
%
Delta-T
°C
Wind Press
QNH
hPa
Press
MSL
hPa
Rain
since 9 am
mm
Dir
 
Spd
km/h
Gust
km/h
Spd
kts
Gust
kts
29/11:30pm 11.5 6.7 11.5 100 0.0 NW 28 43 15 23 1016.2 1016.5 2.4
29/11:07pm 11.5 6.7 11.5 100 0.0 WNW 28 46 15 25 1016.3 - 2.4
29/11:00pm 11.5 6.7 11.5 100 0.0 WNW 28 44 15 24 1016.4 - 2.4
29/10:30pm 11.5 5.9 11.5 100 0.0 NW 32 50 17 27 1016.2 1016.5 2.4
29/10:07pm 11.6 6.4 11.6 100 0.0 WNW 30 48 16 26 1016.0 - 2.4
29/10:00pm 11.6 5.8 11.6 100 0.0 WNW 33 48 18 26 1016.0 - 2.4
29/09:30pm 11.5 6.3 11.5 100 0.0 WNW 30 48 16 26 1015.9 1016.3 2.4
29/09:00pm 11.6 6.4 11.6 100 0.0 WNW 30 50 16 27 1016.0 1016.4 2.4
29/08:41pm 11.6 6.4 11.6 100 0.0 WNW 30 52 16 28 1015.8 - 2.4
29/08:30pm 11.6 6.4 11.6 100 0.0 WNW 30 44 16 24 1015.7 1016.1 2.4
29/08:00pm 11.7 6.5 11.7 100 0.0 WNW 30 50 16 27 1015.6 - 2.4
29/07:34pm 11.6 6.4 11.6 100 0.0 WNW 30 54 16 29 1015.4 - 2.4
29/07:30pm 11.6 6.8 11.6 100 0.0 WNW 28 41 15 22 1015.4 1015.7 2.4
29/07:00pm 11.4 6.5 11.4 100 0.0 W 28 50 15 27 1015.5 - 2.4
29/06:30pm 11.7 5.6 11.7 100 0.0 WNW 35 61 19 33 1015.0 1015.3 2.2
29/06:08pm 11.9 6.8 11.9 100 0.0 WNW 30 48 16 26 1014.6 - 1.6
29/06:00pm 11.9 7.2 11.9 100 0.0 WNW 28 43 15 23 1014.6 1014.9 1.4
29/05:42pm 11.9 7.2 11.9 100 0.0 WNW 28 46 15 25 1014.5 - 1.4
29/05:30pm 11.9 7.6 11.9 100 0.0 WNW 26 43 14 23 1014.5 1014.8 1.4
29/05:02pm 11.9 7.2 11.9 100 0.0 WNW 28 48 15 26 1014.3 - 1.4
29/05:00pm 11.9 7.6 11.9 100 0.0 WNW 26 44 14 24 1014.3 - 1.4
29/04:31pm 11.8 7.0 11.8 100 0.0 WNW 28 48 15 26 1014.2 - 1.4
29/04:30pm 11.8 7.0 11.8 100 0.0 WNW 28 43 15 23 1014.3 1014.6 1.4
29/04:00pm 12.0 6.5 12.0 100 0.0 WNW 32 50 17 27 1014.0 - 1.2
29/03:30pm 12.1 6.5 12.1 100 0.0 WNW 33 61 18 33 1013.9 1014.2 0.6
29/03:02pm 12.2 7.6 12.2 100 0.0 WNW 28 46 15 25 1013.5 - 0.0
29/03:00pm 12.2 7.6 12.2 100 0.0 WNW 28 44 15 24 1013.5 1013.8 0.0
29/02:30pm 11.9 6.8 11.9 100 0.0 NW 30 54 16 29 1013.5 1013.8 0.0
29/02:00pm 12.5 7.1 12.3 99 0.1 WNW 32 54 17 29 1013.2 - 0.0
29/01:30pm 12.6 8.0 12.3 98 0.2 WNW 28 46 15 25 1013.2 1013.5 0.0
29/01:00pm 12.9 7.4 12.6 98 0.2 WNW 33 56 18 30 1013.1 - 0.0
29/12:30pm 12.0 5.6 12.0 100 0.0 WNW 37 63 20 34 1013.6 1013.9 0.0
29/12:00pm 11.9 5.8 11.9 100 0.0 WNW 35 59 19 32 1013.8 1014.1 0.0
29/11:30am 12.1 6.1 12.1 100 0.0 NW 35 63 19 34 1013.9 1014.2 0.0
29/11:00am 11.8 5.7 11.8 100 0.0 NW 35 54 19 29 1013.8 - 0.0
29/10:30am 12.1 5.5 11.5 96 0.3 NW 37 59 20 32 1013.7 1014.0 0.0
29/10:00am 11.8 5.3 11.8 100 0.0 NW 37 63 20 34 1013.4 - 0.0
29/09:30am 11.2 4.9 11.2 100 0.0 NW 35 57 19 31 1013.1 1013.4 0.0
29/09:00am 10.7 4.3 10.7 100 0.0 WNW 35 57 19 31 1013.0 1013.3 0.0
29/08:36am 10.5 4.6 10.5 100 0.0 NW 32 57 17 31 1013.0 - 0.0
29/08:30am 10.3 4.4 10.3 100 0.0 WNW 32 46 17 25 1013.0 1013.3 0.0
29/08:02am 10.2 4.2 10.2 100 0.0 NW 32 50 17 27 1012.8 - 0.0
29/08:00am 10.3 4.4 10.3 100 0.0 NW 32 46 17 25 1012.8 - 0.0
29/07:30am 10.0 3.4 10.0 100 0.0 NW 35 54 19 29 1012.7 1013.0 0.0
29/07:00am 9.8 4.5 9.8 100 0.0 NW 28 50 15 27 1012.4 - 0.0
29/06:30am 9.8 3.7 9.8 100 0.0 NW 32 50 17 27 1012.4 1012.7 0.0
29/06:00am 9.5 3.3 9.5 100 0.0 NW 32 54 17 29 1012.0 1012.3 0.0
29/05:34am 9.1 3.6 9.1 100 0.0 NW 28 46 15 25 1012.4 - 0.0
29/05:30am 9.0 3.1 9.0 100 0.0 NW 30 46 16 25 1012.4 1012.7 0.0
29/05:00am 9.5 3.7 9.5 100 0.0 NW 30 50 16 27 1012.3 - 0.0
29/04:30am 9.5 3.1 9.2 98 0.2 NW 33 56 18 30 1011.8 1012.1 0.0
29/04:02am 9.5 3.5 8.7 95 0.4 NW 30 52 16 28 1012.2 - 0.0
29/04:00am 9.5 3.5 8.7 95 0.4 NW 30 46 16 25 1012.3 - 0.0
29/03:30am 9.6 3.2 8.5 93 0.5 NW 32 52 17 28 1012.8 1013.1 0.0
29/03:00am 9.9 4.2 8.5 91 0.7 NW 28 46 15 25 1012.9 1013.2 0.0
29/02:30am 10.1 4.4 8.4 89 0.8 NW 28 46 15 25 1013.1 1013.4 0.0
29/02:17am 10.3 3.9 8.4 88 0.9 NW 32 50 17 27 1013.2 - 0.0
29/02:00am 10.4 4.7 8.2 86 1.1 NW 28 44 15 24 1013.4 - 0.0
29/01:35am 10.5 3.9 7.9 84 1.3 NW 32 50 17 27 1013.2 - 0.0
29/01:30am 10.5 3.7 7.9 84 1.3 NW 33 48 18 26 1013.2 1013.5 0.0
29/01:00am 10.6 3.8 7.7 82 1.4 WNW 33 52 18 28 1013.5 - 0.0
29/12:37am 10.7 3.5 7.8 82 1.4 WNW 35 59 19 32 1013.5 - 0.0
29/12:30am 10.8 3.7 7.9 82 1.4 WNW 35 52 19 28 1013.6 1013.9 0.0
29/12:00am 10.8 4.1 7.5 80 1.6 WNW 32 54 17 29 1013.8 1014.1 0.0
 
Date/Time
CST
Temp
°C
App
Temp
°C
Dew
Point
Rel
Hum
%
Delta-T
°C
Wind Press
QNH
hPa
Press
MSL
hPa
Rain
since 9 am
mm
Dir
 
Spd
km/h
Gust
km/h
Spd
kts
Gust
kts
28/11:30pm 11.0 4.4 7.7 80 1.6 WNW 32 50 17 27 1013.9 1014.2 0.0
28/11:11pm 11.2 4.1 7.9 80 1.6 WNW 35 54 19 29 1013.9 - 0.0
28/11:00pm 11.0 4.3 8.2 83 1.4 NW 33 50 18 27 1014.0 - 0.0
28/10:31pm 11.2 4.6 8.6 84 1.3 WNW 33 52 18 28 1014.1 - 0.0
28/10:30pm 11.2 4.2 8.4 83 1.4 WNW 35 52 19 28 1014.1 1014.4 0.0
28/10:02pm 11.7 4.7 8.4 80 1.7 WNW 35 61 19 33 1014.1 - 0.0
28/10:00pm 11.5 4.9 8.5 82 1.5 WNW 33 50 18 27 1014.1 - 0.0
28/09:30pm 11.5 5.0 8.2 80 1.7 NW 32 56 17 30 1014.2 1014.5 0.0
28/09:04pm 11.8 5.1 8.3 79 1.8 WNW 33 56 18 30 1014.2 - 0.0
28/09:00pm 11.7 5.3 8.4 80 1.7 WNW 32 48 17 26 1014.2 1014.5 0.0
28/08:30pm 11.5 5.5 8.5 82 1.5 NW 30 48 16 26 1014.1 1014.4 0.0
28/08:22pm 11.3 5.4 8.9 85 1.2 NW 30 48 16 26 1014.1 - 0.0
28/08:00pm 11.1 5.7 9.5 90 0.8 NW 28 43 15 23 1014.1 - 0.0
28/07:36pm 11.1 5.8 10.0 93 0.6 NW 28 46 15 25 1014.1 - 0.0
28/07:30pm 11.1 5.8 9.9 92 0.6 NW 28 44 15 24 1014.0 1014.3 0.0
28/07:00pm 11.0 6.2 10.2 95 0.4 NW 26 39 14 21 1013.9 - 0.0
28/06:30pm 11.0 6.2 10.4 96 0.3 NW 26 43 14 23 1013.8 1014.1 0.0
28/06:00pm 11.0 6.7 10.8 99 0.1 NW 24 37 13 20 1013.6 1013.9 0.0
28/05:30pm 11.2 6.3 11.2 100 0.0 NW 28 44 15 24 1013.7 1014.0 0.0
28/05:09pm 11.4 6.5 11.4 100 0.0 NW 28 46 15 25 1013.8 - 0.0
28/05:00pm 11.7 6.9 11.7 100 0.0 NW 28 44 15 24 1013.6 - 0.0
28/04:31pm 12.1 7.2 11.2 94 0.5 NW 28 50 15 27 1013.2 - 0.0
28/04:30pm 12.0 7.4 11.1 94 0.5 NW 26 50 14 27 1013.1 1013.4 0.0
28/04:18pm 12.0 7.0 11.1 94 0.5 NW 28 50 15 27 1013.0 - 0.0
28/04:00pm 12.5 7.9 11.2 92 0.7 NW 26 44 14 24 1013.1 - 0.0
28/03:30pm 12.2 7.5 11.9 98 0.2 NW 28 46 15 25 1013.5 1013.8 0.0
28/03:00pm 12.1 7.3 11.8 98 0.2 WNW 28 50 15 27 1013.7 1014.0 0.0
28/02:45pm 12.2 7.5 12.0 99 0.1 WNW 28 48 15 26 1013.7 - 0.0
28/02:30pm 12.3 7.3 12.3 100 0.0 WNW 30 44 16 24 1013.8 1014.1 0.0
28/02:01pm 12.4 7.7 11.9 97 0.3 WNW 28 46 15 25 1014.2 - 0.0
28/02:00pm 12.4 7.3 11.9 97 0.3 WNW 30 46 16 25 1014.3 - 0.0
28/01:30pm 12.5 7.7 11.7 95 0.4 WNW 28 46 15 25 1014.5 1014.8 0.0
28/01:23pm 12.5 7.6 11.4 93 0.6 WNW 28 46 15 25 1014.5 - 0.0
28/01:00pm 13.0 9.4 11.9 93 0.6 NW 22 37 12 20 1014.8 - 0.0
28/12:30pm 12.5 8.4 11.6 94 0.5 WNW 24 35 13 19 1015.4 1015.7 0.0
28/12:00pm 11.5 8.2 11.5 100 0.0 WNW 20 32 11 17 1015.7 1016.1 0.0
28/11:30am 11.0 6.8 11.0 100 0.0 WNW 24 37 13 20 1015.9 1016.3 0.0
28/11:00am 10.8 7.5 10.8 100 0.0 WNW 19 30 10 16 1016.3 - 0.0
28/10:30am 10.3 6.6 10.3 100 0.0 WNW 20 32 11 17 1016.5 1016.8 0.0
28/10:00am 10.0 6.4 10.0 100 0.0 NW 19 32 10 17 1016.6 - 0.0
28/09:30am 10.0 5.9 10.0 100 0.0 NW 22 33 12 18 1016.7 1017.0 0.0
28/09:00am 10.0 6.4 10.0 100 0.0 NW 19 30 10 16 1016.4 1016.7 0.0
28/08:30am 9.9 6.7 9.9 100 0.0 NW 17 26 9 14 1016.3 1016.6 0.0
28/08:00am 9.6 6.3 9.6 100 0.0 NW 17 30 9 16 1016.2 - 0.0
28/07:30am 9.6 5.9 9.6 100 0.0 NW 19 30 10 16 1015.9 1016.3 0.0
28/07:00am 9.7 6.1 9.7 100 0.0 NW 19 28 10 15 1015.5 - 0.0
28/06:30am 9.8 6.0 9.7 99 0.1 NW 20 28 11 15 1015.4 1015.7 0.0
28/06:00am 9.9 6.5 9.0 94 0.5 NW 17 24 9 13 1015.3 1015.6 0.0
28/05:30am 9.9 5.9 8.2 89 0.8 NW 19 28 10 15 1015.5 1015.8 0.0
28/05:00am 10.1 6.0 7.9 86 1.1 NW 19 28 10 15 1015.5 - 0.0
28/04:30am 10.1 6.3 7.5 84 1.3 NW 17 26 9 14 1015.5 1015.8 0.0
28/04:00am 9.9 5.6 7.0 82 1.4 NNW 19 28 10 15 1015.7 - 0.0
28/03:30am 10.2 5.6 6.7 79 1.7 NNW 20 30 11 16 1015.7 1016.1 0.0
28/03:00am 10.1 5.5 6.3 77 1.8 NW 20 30 11 16 1015.9 1016.3 0.0
28/02:30am 10.3 5.6 6.1 75 2.0 NW 20 32 11 17 1016.0 1016.4 0.0
28/02:00am 10.7 6.0 6.1 73 2.2 NW 20 30 11 16 1016.2 - 0.0
28/01:30am 11.2 6.1 5.9 70 2.5 NW 22 33 12 18 1016.0 1016.4 0.0
28/01:00am 11.5 6.8 6.0 69 2.6 NW 20 32 11 17 1016.3 - 0.0
28/12:30am 11.9 6.8 6.0 67 2.8 NW 22 33 12 18 1016.4 1016.7 0.0
28/12:00am 12.0 7.3 6.1 67 2.8 NW 20 28 11 15 1016.6 1016.9 0.0
 
Date/Time
CST
Temp
°C
App
Temp
°C
Dew
Point
Rel
Hum
%
Delta-T
°C
Wind Press
QNH
hPa
Press
MSL
hPa
Rain
since 9 am
mm
Dir
 
Spd
km/h
Gust
km/h
Spd
kts
Gust
kts
27/11:30pm 12.1 7.4 5.9 66 3.0 NNW 20 33 11 18 1017.0 1017.3 0.0
27/11:00pm 12.3 7.2 5.9 65 3.1 NW 22 33 12 18 1017.2 - 0.0
27/10:30pm 12.8 8.1 5.9 63 3.3 NNW 20 33 11 18 1017.3 1017.6 0.0
27/10:00pm 13.4 7.9 5.8 60 3.7 NNW 24 39 13 21 1017.4 - 0.0
27/09:30pm 13.7 8.1 5.6 58 3.9 NNW 24 35 13 19 1017.5 1017.8 0.0
27/09:00pm 13.8 8.3 5.7 58 3.9 NNW 24 37 13 20 1017.5 1017.8 0.0
27/08:30pm 13.7 8.6 5.8 59 3.8 NNW 22 39 12 21 1017.4 1017.7 0.0
27/08:00pm 13.5 8.0 6.1 61 3.6 NNW 24 39 13 21 1017.5 - 0.0
27/07:30pm 13.5 8.5 6.4 62 3.5 NNW 22 41 12 22 1017.7 1018.0 0.0
27/07:00pm 13.4 8.1 6.7 64 3.3 NNW 24 41 13 22 1017.8 - 0.0
27/06:30pm 13.4 7.7 6.7 64 3.3 NNW 26 44 14 24 1017.8 1018.1 0.0

Other Formats:

Comma delimited format used in spreadsheet applications
http://www.bom.gov.au/fwo/IDS60801/IDS60801.94683.axf

JavaScript Object Notation format (JSON) in row-major order
http://www.bom.gov.au/fwo/IDS60801/IDS60801.94683.json